Location: Dennehotso
(36.8461°N, 109.8435°W)
Time: 21:37:19
(UTC+00:00)

ISS - Pass Details

Date: 11 March 2021
Orbit: 418 x 422 km, 51.6° (Epoch: 16 April)

Event Time Altitude Azimuth Distance (km) Brightness Sun altitude
Exits shadow 11:45:32 25° 8° (N) 897 -1.9 -22.7°
Maximum altitude 11:46:16 27° 32° (NNE) 840 -1.8 -22.6°
Drops below altitude 10° 11:49:11 10° 93° (E) 1,492 0.1 -22.0°
Sets 11:51:29 0° 105° (ESE) 2,353 1.1 -21.6°
